Location: Clifton Park
(41.4873°N, 81.8024°W)
Time: 02:17:48
(UTC+00:00)

STARLINK-81 - Pass Details

Date: 21 January 2020
Orbit: 528 x 531 km, 53.0° (Epoch: 22 February)

Event Time Altitude Azimuth Distance (km) Brightness Sun altitude
Exits shadow 10:25:11 43° 121° (ESE) 749 4.6 -26.6°
Drops below altitude 10° 10:28:43 10° 63° (ENE) 1,779 7.0 -25.9°
Sets 10:31:00 0° 57° (ENE) 2,672 7.9 -25.5°
